International Skating Union - Official Site

ISU World Single Distances Championships 2016
February 11-14, 2016

Draw | Lap Times | Index | World Cup

Referee: Jan  BOLT  (NED)
Starter: John Magne  ELIASSEN  (NOR)
StartTime: EndTime: Air Temp: Ice Temp: Humidity:
20:28 20:48 14.6 ℃ -6.3 ℃ 38%
Result Team Pursuit Men
Rankings as of Feb 14 2016 10:40PM
Rank: No.: Team: Nation: Time: Behind: Points:
Total 8
1 13 Netherlands (54) Jan Blokhuijsen (55) Douwe de Vries (66) Arjan Stroetinga (53) Jorrit Bergsma NED NED 3:40.040.5 - 18.19 - (18.1)
1.0 - 31.40 - (13.2)
1.5 - 44.65 - (13.2)
2.0 - 58.02 - (13.3)
2.5 - 1:11.49 - (13.4)
3.0 - 1:25.15 - (13.6)
3.5 - 1:38.42 - (13.2)
4.0 - 1:51.79 - (13.3)
4.5 - 2:05.10 - (13.3)
5.0 - 2:18.46 - (13.3)
5.5 - 2:32.05 - (13.5)
6.0 - 2:45.54 - (13.4)
6.5 - 2:59.13 - (13.5)
7.0 - 3:12.88 - (13.7)
7.5 - 3:26.43 - (13.5)
8.0 - 3:40.04 - (13.5)
2 6 Norway (68) Håvard Bøkko (73) Simen Spieler Nilsen (75) Sverre Lunde Pedersen (69) Sindre Henriksen NOR NOR 3:41.260.5 - 17.68 - (17.6)
1.0 - 31.21 - (13.5)
1.5 - 44.70 - (13.4)
2.0 - 58.48 - (13.7)
2.5 - 1:12.18 - (13.7)
3.0 - 1:25.87 - (13.6)
3.5 - 1:39.52 - (13.6)
4.0 - 1:52.99 - (13.4)
4.5 - 2:06.70 - (13.7)
5.0 - 2:20.21 - (13.5)
5.5 - 2:33.62 - (13.4)
6.0 - 2:46.91 - (13.2)
6.5 - 3:00.33 - (13.4)
7.0 - 3:13.86 - (13.5)
7.5 - 3:27.43 - (13.5)
8.0 - 3:41.26 - (13.8)
1.22
3 9 Canada (6) Jordan Belchos (7) Ted-Jan Bloemen (10) Benjamin Donnelly (15) Stefan Waples CAN CAN 3:43.280.5 - 18.08 - (18.0)
1.0 - 31.61 - (13.5)
1.5 - 45.00 - (13.3)
2.0 - 58.39 - (13.3)
2.5 - 1:11.66 - (13.2)
3.0 - 1:25.15 - (13.4)
3.5 - 1:38.82 - (13.6)
4.0 - 1:52.15 - (13.3)
4.5 - 2:05.67 - (13.5)
5.0 - 2:19.43 - (13.7)
5.5 - 2:33.26 - (13.8)
6.0 - 2:47.13 - (13.8)
6.5 - 3:01.12 - (13.9)
7.0 - 3:15.30 - (14.1)
7.5 - 3:29.31 - (14.0)
8.0 - 3:43.28 - (13.9)
3.24
4 11 Italy (31) Andrea Giovannini (32) Michele Malfatti (34) Nicola Tumolero (30) Fabio Francolini ITA ITA 3:43.290.5 - 17.83 - (17.8)
1.0 - 31.36 - (13.5)
1.5 - 44.54 - (13.1)
2.0 - 57.86 - (13.3)
2.5 - 1:11.24 - (13.3)
3.0 - 1:24.75 - (13.5)
3.5 - 1:38.50 - (13.7)
4.0 - 1:52.00 - (13.5)
4.5 - 2:05.74 - (13.7)
5.0 - 2:19.42 - (13.6)
5.5 - 2:33.29 - (13.8)
6.0 - 2:47.43 - (14.1)
6.5 - 3:01.27 - (13.8)
7.0 - 3:15.44 - (14.1)
7.5 - 3:29.36 - (13.9)
8.0 - 3:43.29 - (13.9)
3.25
5 12 Korea (47) Hyung-Joon Joo (48) Cheol-Min Kim (51) Seung-Hoon Lee KOR KOR 3:43.770.5 - 17.67 - (17.6)
1.0 - 30.78 - (13.1)
1.5 - 43.92 - (13.1)
2.0 - 57.08 - (13.1)
2.5 - 1:10.49 - (13.4)
3.0 - 1:23.97 - (13.4)
3.5 - 1:37.65 - (13.6)
4.0 - 1:51.46 - (13.8)
4.5 - 2:05.40 - (13.9)
5.0 - 2:19.19 - (13.7)
5.5 - 2:33.24 - (14.0)
6.0 - 2:47.44 - (14.1)
6.5 - 3:01.74 - (14.3)
7.0 - 3:15.64 - (13.8)
7.5 - 3:29.64 - (14.0)
8.0 - 3:43.77 - (14.1)
3.73
6 8 Russia (86) Sergey Gryaztsov (92) Aleksandr Rumyantsev (95) Danil Sinitsyn (96) Sergey Trofimov RUS RUS 3:44.810.5 - 18.14 - (18.1)
1.0 - 31.41 - (13.2)
1.5 - 44.58 - (13.1)
2.0 - 57.82 - (13.2)
2.5 - 1:11.33 - (13.5)
3.0 - 1:24.88 - (13.5)
3.5 - 1:38.52 - (13.6)
4.0 - 1:52.11 - (13.5)
4.5 - 2:05.90 - (13.7)
5.0 - 2:19.68 - (13.7)
5.5 - 2:33.69 - (14.0)
6.0 - 2:47.73 - (14.0)
6.5 - 3:01.95 - (14.2)
7.0 - 3:16.01 - (14.0)
7.5 - 3:30.45 - (14.4)
8.0 - 3:44.81 - (14.3)
4.77
7 7 Japan (38) Shota Nakamura (42) Ryosuke Tsuchiya (43) Shane Williamson (40) Takuro Ogawa JPN JPN 3:45.070.5 - 17.65 - (17.6)
1.0 - 31.11 - (13.4)
1.5 - 44.53 - (13.4)
2.0 - 58.10 - (13.5)
2.5 - 1:11.79 - (13.6)
3.0 - 1:25.56 - (13.7)
3.5 - 1:39.52 - (13.9)
4.0 - 1:53.31 - (13.7)
4.5 - 2:07.15 - (13.8)
5.0 - 2:21.25 - (14.0)
5.5 - 2:35.16 - (13.9)
6.0 - 2:48.98 - (13.8)
6.5 - 3:03.05 - (14.0)
7.0 - 3:16.97 - (13.9)
7.5 - 3:31.09 - (14.1)
8.0 - 3:45.07 - (13.9)
5.03
8 10 Poland (79) Zbigniew Brodka (81) Konrad Niedzwiedzki (84) Jan Szymanski (83) Piotr Puszkarski POL POL 3:47.800.5 - 17.96 - (17.9)
1.0 - 31.50 - (13.5)
1.5 - 45.09 - (13.5)
2.0 - 58.56 - (13.4)
2.5 - 1:12.21 - (13.6)
3.0 - 1:26.12 - (13.9)
3.5 - 1:39.68 - (13.5)
4.0 - 1:53.26 - (13.5)
4.5 - 2:07.15 - (13.8)
5.0 - 2:21.10 - (13.9)
5.5 - . d - (14.2)
6.0 - 2:49.63 - (14.3)
6.5 - 3:03.92 - (14.2)
7.0 - 3:18.28 - (14.3)
7.5 - 3:33.00 - (14.7)
8.0 - 3:47.80 - (14.8)
7.76